Regional Weather Roundup
Issued by NWS Grand Forks, ND

Home | Current Version | Previous Version | Graphics & Text | Print | Product List | Glossary On
Versions: 1 2 3 4 5 6 7 8 9 10 11 12 13 14 15 16 17 18 19 20 21 22 23 24 25 26 27 28 29 30 31 32 33 34 35 36 37 38 39 40 41 42 43 44 45 46 47 48 49 50
000
ASUS43 KFGF 290531
RWRFGF
PRAIRIE TO PINES  WEATHER ROUNDUP
NATIONAL WEATHER SERVICE EASTERN NORTH DAKOTA/GRAND FORKS ND
1200 AM CDT SUN MAY 29 2016

 **SATELLITE DATA USED TO AUGMENT SKY COVER AT AUTOMATED STATIONS**
 *****  WEATHER ACROSS EASTERN NORTH DAKOTA  *****

CITY           SKY/WX    TMP DP  RH WIND       PRES   REMARKS
GRAND FORKS    CLOUDY    60  59  96 NW5       29.85F
GRAND FRKS AFB CLOUDY    59  59 100 NW5       29.86F
GRAND FRKS NWS   N/A     59 N/A N/A MISG        N/A
DEVILS LAKE    PTCLDY    57  56  96 N7        29.91S FOG
FARGO          CLOUDY    61  58  90 NW5       29.86R
WAHPETON ARPT  CLOUDY    59  55  88 NW6       29.87S
$$

 ***** WEATHER ACROSS CENTRAL AND WESTERN NORTH DAKOTA  *****

CITY           SKY/WX    TMP DP  RH WIND       PRES   REMARKS
BISMARCK       CLEAR     56  55  97 W5        29.95R
MINOT          CLOUDY    59  56  89 N9        29.93S
JAMESTOWN      CLOUDY    59  58  96 NE5       29.89R
MINOT AFB      CLOUDY    56  54  91 SE5       29.92F
GARRISON         N/A     55  53  93 NW9       29.94S
WILLISTON      CLEAR     51  50  96 CALM      29.96S FOG
DICKINSON      CLEAR     46  46 100 SW3       29.97S FOG
HETTINGER      CLEAR     46  45  96 CALM      30.02R FOG
$$

 *****  OTHER AIRPORT OBSERVATIONS IN OUR AREA  *****

CITY           SKY/WX    TMP DP  RH WIND       PRES   REMARKS
WALHALLA       FAIR      57  57 100 N12       29.90S
GRAFTON AIRPOR CLOUDY    59  59 100 CALM      29.89S
VALLEY CITY AR FAIR      55  55 100 CALM      29.91S
CANDO          FAIR      55  55 100 N9        29.94F
CAVALIER APRT  MOCLDY    61  59  94 N7        29.89R
GWINNER        FAIR      57  57 100 SW6       29.89S
SHEYENNE NWR     N/A     58  57  97 CALM      29.95S
ROLLA          FOG       54  54 100 N7        29.95S VSB 1/4
 ***** THE ABOVE OBSERVATIONS ARE NON NWS ARE NOT QUALITY
       CONTROLLED AND MAY MIS-REPORT RAIN FOR SNOW...
$$

  *****  WEATHER ACROSS NORTHERN MINNESOTA  *****

CITY           SKY/WX    TMP DP  RH WIND       PRES   REMARKS
FLAG ISLAND    DRIZZLE   55  54  94 NE9       29.84S
WARROAD        CLOUDY    55  52  88 N5        29.86S
ROSEAU         CLOUDY    55  52  88 N5        29.86S
HALLOCK        CLOUDY    61  57  88 NE3       29.86F
THF RVR FALLS  CLOUDY    57  54  88 N8        29.87S
BAUDETTE       CLOUDY    55  53  93 NW3       29.83F
WASKISH        DRIZZLE   55  55 100 CALM      29.82F
CROOKSTON      LGT RAIN  59  57  94 N3        29.86F
GREENBUSH NDAW   N/A     57  55  94 N5          N/A
$$
  *****  WEATHER ACROSS CENTRAL AND WEST MINNESOTA  *****

CITY           SKY/WX    TMP DP  RH WIND       PRES   REMARKS
FOSSTON        RAIN      55  55 100 N7        29.86S
BEMIDJI        DRIZZLE   57  57  98 NW5       29.83S
PARK RAPIDS    CLOUDY    60  57  89 W6        29.83S
ELBOW LAKE     DRIZZLE   58  58  99 NW5       29.86S
WADENA         CLOUDY    57  57 100 W5        29.84S
DETROIT LAKES  RAIN      59  57  94 NW9       29.86S
MOORHEAD       LGT RAIN  61  57  88 N6        29.86S
FERGUS FALLS   LGT RAIN  59  59 100 NW8       29.83S
MORRIS MN      LGT RAIN  61  57  88 NW7       29.86S
STAPLES        CLOUDY    57  55  94 W3        29.83S
$$
  *****  WEATHER ELSEWHERE ACROSS MINNESOTA  *****

CITY           SKY/WX    TMP DP  RH WIND       PRES   REMARKS
DULUTH         CLOUDY    56  54  93 SE3       29.81R FOG
INTRNTL FALLS  LGT RAIN  57  56  96 NE5       29.80F FOG
ELY            CLOUDY    59  57  94 CALM      29.80S FOG
CLOQUET        LGT RAIN  55  54  94 CALM      29.82R
WHEATON        CLOUDY    63  59  88 W3        29.89S
BRAINERD       CLOUDY    59  58  96 W6        29.82F
HIBBING        CLOUDY    58  58 100 CALM      29.80F
ALEXANDRIA     CLOUDY    59  57  93 W7        29.86S
SAINT CLOUD    CLOUDY    61  59  93 SW5       29.83R
MINNEAPOLIS    CLOUDY    63  60  90 W3        29.82R
$$

  *****  WEATHER ACROSS SOUTH DAKOTA  *****

CITY           SKY/WX    TMP DP  RH WIND       PRES   REMARKS
SIOUX FALLS    PTCLDY    59  57  93 W5        29.94R
BROOKINGS      CLOUDY    58  57  97 W8        29.92R
WATERTOWN      CLOUDY    59  55  87 W8        29.91S
HURON          PTCLDY    59  58  96 SW6       29.92R
SISSETON         N/A     59  57  93 NW5       29.87S
ABERDEEN       PTCLDY    60  55  83 W6        29.90F
MITCHELL       PTCLDY    61  59  93 SW7       29.95R
PIERRE         CLEAR     56  53  90 W5        29.94S
MOBRIDGE       CLEAR     55  52  89 NW3       29.93R
RAPID CITY     PTCLDY    52  46  80 NW10      30.03R
$$

  *****  SOME WEATHER IN NEARBY STATES *****

CITY           SKY/WX    TMP DP  RH WIND       PRES   REMARKS
GLASGOW MT     CLEAR     54  38  54 SW6       29.97R
GREAT FALLS MT CLEAR     42  32  67 W6        30.03R
CHEYENNE WY    PTCLDY    53  40  61 SW15      30.15R
SCOTTSBLUFF NE PTCLDY    54  46  74 E6        30.08R
OMAHA NE       CLEAR     63  55  75 NW8       29.97R
DES MOINES IA  CLEAR     63  55  75 SW8       29.92R
DAVENPORT IA   CLOUDY    66  60  81 S8        29.95R
CHICAGO IL     MOCLDY    66  63  90 S6        29.96R
EAU CLAIRE WI  PTCLDY    60  59  96 S7        29.82R
LA CROSSE WI   MOCLDY    65  63  93 S3        29.83R
$$

  *****  SOME NATIONAL WEATHER *****

CITY           SKY/WX    TMP DP  RH WIND       PRES   REMARKS
LA GUARDIA NY  CLEAR     80  63  55 SW9       30.12R
RALEIGH NC     CLOUDY    74  63  68 SE5       30.14S
ATLANTA GA     MOCLDY    74  56  53 SE5       30.12S
NEW ORLEANS LA PTCLDY    73  69  87 CALM      30.06S
OKLAHOMA CITY  CLEAR     71  67  87 SE7       30.02F
ALBUQUERQUE NM MOCLDY    70  17  13 E6        30.08R
SALT LAKE CITY MOCLDY    65  40  39 SE6       30.07R
LOS ANGELES CA CLOUDY    59  53  80 SW6       29.97R
BOISE ID       CLEAR     58  31  35 SW3       30.02R
SEATTLE WA     CLOUDY    56  54  93 S6        30.05S
$$

*** WEATHER ACROSS MANITOBA...SASKATCHEWAN AND ONTARIO ***
                ***ONTARIO***

CITY           SKY/WX    TMP DP  RH WIND       PRES   REMARKS
GERALDTON      LGT RAIN  55  54  94 E10G17    29.85F FOG
THUNDER BAY    DRIZZLE   57  57 100 N2        29.81S FOG
SIOUX LOOKOUT  DRIZZLE   52  52 100 NE5       29.88F FOG
TORONTO        PTCLDY    75  63  64 S7        30.06S
BIG TROUT LK   CLOUDY    52  45  76 E8        30.09F
PICKLE LAKE    NOT AVBL
DRYDEN         CLOUDY    52  52 100 NE10      29.85S FOG
KENORA         LGT RAIN  52  52 100 NE10      29.86F
$$
                *** MANITOBA***

CITY           SKY/WX    TMP DP  RH WIND       PRES   REMARKS
BRANDON        CLOUDY    52  50  93 NE7       29.96S
DAUPHIN        CLOUDY    50  50 100 NE6       29.97S FOG
ISLAND LAKE    LGT RAIN  50  45  81 E5        30.04F
PILOT MOUND      N/A     54  54 100 N10         N/A
THE PAS        CLOUDY    48  43  81 E8        30.02
THOMPSON       LGT RAIN  48  43  81 E6        30.09S
WINNIPEG       MOCLDY    57  54  88 NE8       29.91F
LYNN LAKE      MOCLDY    43  39  87 E3        30.06S
CHURCHILL      PTCLDY    28  28 100 E13       30.25F WCI  18
$$
                ***SASKATCHEWAN***

CITY           SKY/WX    TMP DP  RH WIND       PRES   REMARKS
ESTEVAN        NOT AVBL
KINDERSLEY     PTCLDY    50  46  87 S5        29.88S
LLOYDMINSTER   MOCLDY    48  46  93 NW6       29.87S
PRINCE ALBERT  MOCLDY    50  45  81 E12       29.90S
REGINA         PTCLDY    48  46  93 SW5       29.91F
YORKTON        CLOUDY    50  48  93 SE10      29.93F
N. BATTLEFORD  MOCLDY    50  50 100 S5        29.87F
LA RONGE       CLOUDY    50  45  81 E5        29.97F
SASKATOON      PTCLDY    50  50 100 SW6       29.88S
SWIFT CURRENT  CLEAR     50  46  87 W3        29.92S
$$
NOTE: THESE ARE AUTOMATED STATIONS WITH LIMITED QUALITY CONTROL
      "FAIR" INDICATES FEW OR NO CLOUDS BELOW 12,000 FEET WITH NO
      SIGNIFICANT WEATHER AND/OR OBSTRUCTIONS TO VISIBILITY.
      SKY/WX - SKY CONDITION AND SIGNIFICANT WEATHER.
      TMP - AIR TEMPERATURE.    DP   - DEWPOINT TEMPERATURE.
      RH  - RELATIVE HUMIDITY.  PRES - PRESSURE.
      HX  - HEAT INDEX.         WCI  - WIND CHILL INDEX.
$




USA.gov is the U.S. government's official web portal to all federal, state and local government web resources and services.